Date,TemperatureHighF,TemperatureAvgF,TemperatureLowF,DewpointHighF,DewpointAvgF,DewpointLowF,HumidityHigh,HumidityAvg,HumidityLow,PressureMaxIn,PressureMinIn,WindSpeedMaxMPH,WindSpeedAvgMPH,GustSpeedMaxMPH,PrecipitationSumIn
2013-1-1,32,26,12,-100,-100,-100,0,0,100,0.00,40.00,0,-999,0,0.00
2013-1-2,22,12,2,-100,-100,-100,0,0,100,0.00,40.00,0,-999,0,0.00
2013-1-3,18,10,-1,-100,-100,-100,0,0,100,0.00,40.00,0,-999,0,0.00
2013-1-4,35,27,17,-100,-100,-100,0,0,100,0.00,40.00,0,-999,0,0.00
2013-1-5,35,29,16,-100,-100,-100,0,0,100,0.00,40.00,0,-999,0,0.00
2013-1-6,37,28,16,-100,-100,-100,0,0,100,0.00,40.00,0,-999,0,0.00
2013-1-7,34,28,15,-100,-100,-100,0,0,100,0.00,40.00,0,-999,0,0.00
2013-1-8,41,29,18,-100,-100,-100,0,0,100,0.00,40.00,0,-999,0,0.00
2013-1-9,41,29,15,-100,-100,-100,0,0,100,0.00,40.00,0,-999,0,0.00
2013-1-10,40,36,29,-100,-100,-100,0,0,100,0.00,40.00,0,-999,0,0.00
2013-1-11,36,29,21,-100,-100,-100,0,0,100,0.00,40.00,0,-999,0,0.09
2013-1-12,41,36,32,-100,-100,-100,0,0,100,0.00,40.00,0,-999,0,0.12
2013-1-13,45,41,35,-100,-100,-100,0,0,100,0.00,40.00,0,-999,0,0.01
2013-1-14,54,43,34,-100,-100,-100,0,0,100,0.00,40.00,0,-999,0,0.00
2013-1-15,35,31,26,-100,-100,-100,0,0,100,0.00,40.00,0,-999,0,0.00
2013-1-16,31,28,26,-100,-100,-100,0,0,100,0.00,40.00,0,-999,0,0.28
2013-1-17,36,30,22,-100,-100,-100,0,0,100,0.00,40.00,0,-999,0,0.02
2013-1-18,22,15,9,-100,-100,-100,0,0,100,0.00,40.00,0,-999,0,0.00
2013-1-19,40,29,15,-100,-100,-100,0,0,100,0.00,40.00,0,-999,0,0.00
2013-1-20,43,34,23,-100,-100,-100,0,0,100,0.00,40.00,0,-999,0,0.00
2013-1-21,23,18,13,-100,-100,-100,0,0,100,0.00,40.00,0,-999,0,0.00
2013-1-22,16,13,6,-100,-100,-100,0,0,100,0.00,40.00,0,-999,0,0.00
2013-1-23,7,4,-3,-100,-100,-100,0,0,100,0.00,40.00,0,-999,0,0.00
2013-1-24,12,4,-4,-100,-100,-100,0,0,100,0.00,40.00,0,-999,0,0.00
2013-1-25,15,9,1,-100,-100,-100,0,0,100,0.00,40.00,0,-999,0,0.00
2013-1-26,16,10,4,-100,-100,-100,0,0,100,0.00,40.00,0,-999,0,0.00
2013-1-27,24,14,9,-100,-100,-100,0,0,100,0.00,40.00,0,-999,0,0.00
2013-1-28,22,18,11,-100,-100,-100,0,0,100,0.00,40.00,0,-999,0,0.12
2013-1-29,32,26,18,-100,-100,-100,0,0,100,0.00,40.00,0,-999,0,0.09
2013-1-30,54,42,31,-100,-100,-100,0,0,100,0.00,40.00,0,-999,0,0.05
2013-1-31,52,34,25,-100,-100,-100,0,0,100,0.00,40.00,0,-999,0,1.21